Location: Chervonnoye
(48.6000°N, 34.4000°E)
Time: 16:05:45
(UTC+00:00)

XW-2D - Visible Passes

Search period start: 03 December 2021 00:00
Search period end: 13 December 2021 00:00
Orbit: 504 x 521 km, 97.5° (Epoch: 03 December)

Date Brightness Start Highest point End Pass type
(mag) Time Alt. Az. Time Alt. Az. Time Alt. Az.
03 Dec ? 02:57:29 10° NE 03:00:27 21° E 03:03:25 10° SE visible
03 Dec ? 04:31:04 10° N 04:34:33 34° WNW 04:38:01 10° SW visible
03 Dec ? 15:14:14 10° S 15:17:47 41° W 15:21:23 10° NNW visible
04 Dec ? 02:42:24 10° NE 02:44:38 15° E 02:46:51 10° SE visible
04 Dec ? 04:15:13 10° N 04:18:56 51° WNW 04:22:37 10° SSW visible
04 Dec ? 14:58:20 10° S 15:02:03 63° W 15:05:49 10° NNW visible
05 Dec ? 02:28:40 10° E 02:28:46 10° E 02:28:51 10° E visible
05 Dec ? 03:59:28 10° N 04:03:17 77° WNW 04:07:04 10° SSW visible
05 Dec ? 14:42:36 10° SSE 14:46:21 84° ENE 14:50:09 10° NNW visible
06 Dec ? 03:43:46 10° NNE 03:47:35 70° E 03:51:23 10° S visible
06 Dec ? 14:27:01 10° SSE 14:30:41 55° ENE 14:34:23 10° N visible
06 Dec ? 16:03:08 10° WSW 16:05:02 13° W 16:06:57 10° WNW visible
07 Dec ? 03:28:10 10° NNE 03:31:51 46° E 03:35:31 10° S visible
07 Dec ? 15:46:24 10° SW 15:49:11 19° W 15:51:59 10° NW visible
08 Dec ? 03:12:39 10° NNE 03:16:05 31° E 03:19:29 10° SSE visible
08 Dec ? 04:46:50 10° N 04:49:58 24° WNW 04:53:05 10° WSW visible
08 Dec ? 15:30:05 10° SSW 15:33:22 28° W 15:36:40 10° NW visible
09 Dec ? 02:57:18 10° NE 03:00:16 21° E 03:03:13 10° SE visible
09 Dec ? 04:30:53 10° N 04:34:22 35° WNW 04:37:50 10° SW visible
09 Dec ? 15:14:00 10° S 15:17:34 42° W 15:21:11 10° NNW visible
10 Dec ? 02:42:12 10° NE 02:44:25 15° E 02:46:37 10° SE visible
10 Dec ? 04:15:01 10° N 04:18:43 51° WNW 04:22:24 10° SSW visible
10 Dec ? 14:58:05 10° S 15:01:49 64° W 15:05:35 10° NNW visible
11 Dec ? 03:59:13 10° N 04:03:02 78° WNW 04:06:50 10° SSW visible
11 Dec ? 14:42:20 10° SSE 14:46:05 84° ENE 14:49:54 10° NNW visible
12 Dec ? 03:43:30 10° NNE 03:47:19 70° ESE 03:51:05 10° S visible
12 Dec ? 14:26:42 10° SSE 14:30:23 55° ENE 14:34:07 10° N visible
12 Dec ? 16:02:46 10° WSW 16:04:44 14° W 16:06:42 10° WNW visible
